Regional Weather Roundup
Issued by NWS Grand Forks, ND

Home | Current Version | Previous Version | Text Only | Print | Product List | Glossary On
Versions: 1 2 3 4 5 6 7 8 9 10 11 12 13 14 15 16 17 18 19 20 21 22 23 24 25 26 27 28 29 30 31 32 33 34 35 36 37 38 39 40 41 42 43 44 45 46 47 48 49 50
000
ASUS43 KFGF 260510
RWRFGF
PRAIRIE TO PINES  WEATHER ROUNDUP
NATIONAL WEATHER SERVICE EASTERN NORTH DAKOTA/GRAND FORKS ND
1100 PM CST THU DEC 25 2014

 **SATELLITE DATA USED TO AUGMENT SKY COVER AT AUTOMATED STATIONS**
 *****  WEATHER ACROSS EASTERN NORTH DAKOTA  *****

CITY           SKY/WX    TMP DP  RH WIND       PRES   REMARKS
GRAND FORKS    CLOUDY    26  21  81 N8        30.01R WCI  18
GRAND FRKS AFB CLOUDY    26  24  93 N7        30.02R WCI  18
GRAND FRKS NWS   N/A     25 N/A N/A NE6         N/A  WCI  18
DEVILS LAKE    CLOUDY    21  18  86 N10       30.00R WCI  10
FARGO          CLOUDY    27  22  81 N13       29.99R WCI  16
WAHPETON ARPT  CLOUDY    28  23  80 N10       29.97R WCI  19
$$

 ***** WEATHER ACROSS CENTRAL AND WESTERN NORTH DAKOTA  *****

CITY           SKY/WX    TMP DP  RH WIND       PRES   REMARKS
BISMARCK       CLOUDY    25  21  85 N9        30.03R WCI  15
MINOT          CLOUDY    17  11  77 W18       30.05R WCI   1
JAMESTOWN      CLOUDY    25  20  81 N10       29.98R WCI  15
MINOT AFB      CLOUDY    15  12  88 NW20      30.04R WCI  -2
GARRISON         N/A     22  17  81 NW17      30.03R WCI   8
WILLISTON      CLOUDY    17  11  77 NW8       30.09R WCI   7
DICKINSON      CLOUDY    21  15  78 NW13      30.00R WCI   9
HETTINGER      CLOUDY    22  16  78 NW12      30.00R WCI  10
$$

 *****  OTHER AIRPORT OBSERVATIONS IN OUR AREA  *****

CITY           SKY/WX    TMP DP  RH WIND       PRES   REMARKS
WALHALLA         N/A     25  21  86 NW6       30.04R WCI  18
GRAFTON AIRPOR NOT AVBL
VALLEY CITY AR CLOUDY    25  25 100 N9        29.98R WCI  15
CANDO          CLOUDY    21  18  86 N8        30.03R WCI  12
CAVALIER APRT  CLOUDY    25  23  93 NW6       30.03R WCI  18
GWINNER        CLOUDY    28  28 100 N13       29.98R WCI  18
SHEYENNE NWR     N/A     26  22  85 N7        29.95S WCI  18
ROLLA          CLOUDY    19  18  93 NW7       30.01R WCI  10
 ***** THE ABOVE OBSERVATIONS ARE NON NWS ARE NOT QUALITY
       CONTROLLED AND MAY MIS-REPORT RAIN FOR SNOW...
$$

  *****  WEATHER ACROSS NORTHERN MINNESOTA  *****

CITY           SKY/WX    TMP DP  RH WIND       PRES   REMARKS
FLAG ISLAND    CLOUDY    23  19  86 NW10      29.95R WCI  12
WARROAD        CLOUDY    25  19  80 NW13      29.97R WCI  13
ROSEAU         CLOUDY    27  19  74 NW6       29.98R WCI  20
HALLOCK        CLOUDY    25  19  80 NW14      30.02R WCI  13
THF RVR FALLS  CLOUDY    25  21  86 NW7       29.98R WCI  17
BAUDETTE       CLOUDY    25  20  81 NW12      29.94R WCI  14
WASKISH        CLOUDY    27  21  80 CALM      29.94R
CROOKSTON      CLOUDY    27  21  80 N9        30.01R WCI  17
GREENBUSH NDAW   N/A     25  21  86 NW7         N/A  WCI  17
$$
  *****  WEATHER ACROSS CENTRAL AND WEST MINNESOTA  *****

CITY           SKY/WX    TMP DP  RH WIND       PRES   REMARKS
FOSSTON        CLOUDY    23  21  93 N9        29.97R WCI  13
BEMIDJI        CLOUDY    25  21  86 N3        29.94R
PARK RAPIDS    CLOUDY    26  20  77 N7        29.92R WCI  18
ELBOW LAKE     CLOUDY    26  23  87 N12       29.93R WCI  16
WADENA         CLOUDY    27  23  86 N10       29.91R WCI  17
DETROIT LAKES  CLOUDY    27  23  86 N6        29.95R WCI  20
MOORHEAD       CLOUDY    27  27 100 CALM      29.99R
FERGUS FALLS   CLOUDY    27  21  80 N8        29.98R WCI  18
MORRIS MN      LGT SNOW  28  27  93 N13       29.92R VSB 1   WCI  18
STAPLES        CLOUDY    28  23  80 N9        29.91R WCI  20
$$
  *****  WEATHER ELSEWHERE ACROSS MINNESOTA  *****

CITY           SKY/WX    TMP DP  RH WIND       PRES   REMARKS
DULUTH         CLOUDY    30  24  78 N5        29.87R
INTRNTL FALLS  CLOUDY    27  24  89 W5        29.91R WCI  22
ELY            CLOUDY    27  21  80 NW5       29.89R WCI  21
CLOQUET        CLOUDY    28  27  93 CALM      29.89R
WHEATON        CLOUDY    25  21  86 N12G17    29.98R WCI  14
BRAINERD       CLOUDY    29  25  85 N6        29.91R WCI  23
HIBBING        CLOUDY    29  21  72 N10       29.90R WCI  20
ALEXANDRIA     LGT SNOW  28  24  85 N7        29.91R FOG     WCI  21
SAINT CLOUD    LGT SNOW  33  28  81 N7        29.89R
MINNEAPOLIS    MOCLDY    30  28  92 N6        29.87R WCI  24
$$

  *****  WEATHER ACROSS SOUTH DAKOTA  *****

CITY           SKY/WX    TMP DP  RH WIND       PRES   REMARKS
SIOUX FALLS    CLOUDY    29  26  89 N14       29.82S WCI  18
BROOKINGS      NOT AVBL
WATERTOWN      LGT SNOW  26  23  88 N10       29.89S FOG     WCI  16
HURON          LGT SNOW  26  24  92 N15       29.93S FOG     WCI  14
SISSETON         N/A     27  23  85 NE16      29.95R WCI  15
ABERDEEN       CLOUDY    28  23  81 N9        29.96S WCI  19
MITCHELL       CLOUDY    28  25  88 N17       29.90R WCI  16
PIERRE         CLOUDY    26  22  84 NW12      29.97R WCI  16
MOBRIDGE       CLOUDY    27  21  78 N10       29.96R WCI  17
RAPID CITY     CLOUDY    21  17  84 N16       29.97S WCI   7
$$

  *****  SOME WEATHER IN NEARBY STATES *****

CITY           SKY/WX    TMP DP  RH WIND       PRES   REMARKS
GLASGOW MT     CLOUDY    20  14  77 SE7       30.04S WCI  11
GREAT FALLS MT CLEAR     16  10  77 S10       29.92S WCI   4
CHEYENNE WY    FOG       16  12  84 NE12      29.82R VSB 3/4 WCI   3
SCOTTSBLUFF NE LGT SNOW  23  19  85 N9        29.92R FOG     WCI  13
OMAHA NE       PTCLDY    38  31  76 CALM      29.73R
DES MOINES IA  CLOUDY    42  31  64 S13       29.78R
DAVENPORT IA   PTCLDY    41  32  70 S16       29.92S
CHICAGO IL     MOCLDY    39  32  76 S14       30.01R
EAU CLAIRE WI  PTCLDY    30  27  88 NE6       29.86F WCI  24
LA CROSSE WI   MOCLDY    32  29  88 SE3       29.86S
$$

  *****  SOME NATIONAL WEATHER *****

CITY           SKY/WX    TMP DP  RH WIND       PRES   REMARKS
LA GUARDIA NY  CLEAR     45  28  51 W12       30.11R
RALEIGH NC     CLEAR     36  32  85 E3        30.26F
ATLANTA GA     MOCLDY    39  34  82 CALM      30.24S
NEW ORLEANS LA MOCLDY    48  40  73 SE6       30.20S
OKLAHOMA CITY  MOCLDY    49  29  46 S18G28    29.82R
ALBUQUERQUE NM MOCLDY    40  26  57 W16G30    29.71F
SALT LAKE CITY CLOUDY    28  24  85 N8        29.81R WCI  20
LOS ANGELES CA CLEAR     53  24  32 N13G22    29.91R
BOISE ID       CLEAR     28  21  75 NW14      30.06R WCI  17
SEATTLE WA     MOCLDY    38  36  92 SE6       30.28R
$$

*** WEATHER ACROSS MANITOBA...SASKATCHEWAN AND ONTARIO ***
                ***ONTARIO***

CITY           SKY/WX    TMP DP  RH WIND       PRES   REMARKS
GERALDTON      CLOUDY    28  28 100 SW5       29.81R WCI  23
THUNDER BAY    MOCLDY    30  27  86 W3        29.89R
SIOUX LOOKOUT  FLURRIES  27  25  93 NW8       29.85R WCI  18
TORONTO        CLOUDY    37  28  70 W14G23    30.10R
BIG TROUT LK   FLURRIES  19  19 100 W10       29.80R WCI   8
PICKLE LAKE    NOT AVBL
DRYDEN         CLOUDY    27  25  93 W7        29.87R WCI  19
KENORA         LGT SNOW  21  19  93 NW9       29.92R FOG     WCI  11
$$
                *** MANITOBA***

CITY           SKY/WX    TMP DP  RH WIND       PRES   REMARKS
BRANDON        CLOUDY    18  14  86 NW13      30.05R WCI   4
DAUPHIN        FLURRIES   9   7  92 NE8       30.08R WCI  -4
ISLAND LAKE    LGT SNOW  19  18  93 W10       29.89R DRFTSNOWWCI   8
PILOT MOUND      N/A     19  18  93 NW10        N/A  WCI   8
THE PAS        FLURRIES  -2  -8  78 NW15      30.11R WCI -22
THOMPSON       FLURRIES  -8 -15  71 NW9       30.01R WCI -25
WINNIPEG       FLURRIES  23  19  86 NW9       30.02R WCI  13
GILLAM         LGT SNOW   3  -2  78 NW10      29.92R WCI -12
$$
                ***SASKATCHEWAN***

CITY           SKY/WX    TMP DP  RH WIND       PRES   REMARKS
ESTEVAN        FLURRIES   7   3  85 NW10      30.08R WCI  -8
KINDERSLEY     CLOUDY     9   5  85 SE3       30.03R
LLOYDMINSTER   CLOUDY     7   5  92 S5        30.03R WCI  -2
PRINCE ALBERT  NOT AVBL
REGINA         MOCLDY    -6  -9  84 NW7       30.10R WCI -20
YORKTON        CLEAR     -9 -13  84 W12       30.08R WCI -29
N. BATTLEFORD  CLOUDY     3   1  92 CALM      30.10R
LA RONGE       NOT AVBL
SASKATOON      CLOUDY     0  -6  78 W3        30.13R
SWIFT CURRENT  LGT SNOW   7   5  92 E3        30.00R VSB 1
$$
NOTE: THESE ARE AUTOMATED STATIONS WITH LIMITED QUALITY CONTROL
      "FAIR" INDICATES FEW OR NO CLOUDS BELOW 12,000 FEET WITH NO
      SIGNIFICANT WEATHER AND/OR OBSTRUCTIONS TO VISIBILITY.
      SKY/WX - SKY CONDITION AND SIGNIFICANT WEATHER.
      TMP - AIR TEMPERATURE.    DP   - DEWPOINT TEMPERATURE.
      RH  - RELATIVE HUMIDITY.  PRES - PRESSURE.
      HX  - HEAT INDEX.         WCI  - WIND CHILL INDEX.
$



USA.gov is the U.S. government's official web portal to all federal, state and local government web resources and services.